Wind_Speed
4 7 8 9 11 12 14 15 14 10 10 16 18 19 25 24 25 28 31 32 33 34 35 35 35 38 39 39 40 39 38 39 38 38 39 39 40 41
6 8 9 11 12 14 15 16 17 19 12 20 22 24 25 25 29 30 31 34 32 34 35 36 39 37 37 37 38 38 39 40 40 39 39 40 40 41
8 10 11 12 14 15 16 17 18 19 16 24 25 23 27 30 29 31 29 32 35 31 41 35 35 36 37 37 38 39 39 40 39 39 40 40 40 41
10 11 13 13 15 16 17 18 20 21 24 25 25 27 27 26 31 29 29 27 39 31 32 36 36 37 38 37 38 39 39 40 40 41 41 40 41 42
11 12 14 15 17 17 18 20 21 22 24 26 29 27 29 28 30 24 33 30 27 31 34 36 36 38 37 36 38 40 40 39 40 40 41 42 42 42
13 14 15 16 18 18 20 21 22 24 25 25 28 30 28 24 27 29 24 27 30 29 36 36 35 36 35 37 40 40 38 37 38 39 39 40 40 40
15 16 16 17 18 20 21 21 24 24 24 26 26 26 24 27 24 25 27 28 34 31 29 39 26 35 36 36 37 36 34 35 36 37 38 40 40 41
16 17 18 19 19 19 22 23 25 27 27 26 26 24 28 27 27 26 30 28 11 30 20 42 32 36 34 35 36 37 38 37 36 37 38 39 40 39
16 18 19 19 20 21 22 25 25 30 30 33 30 26 28 28 31 32 30 28 28 34 31 35 33 37 35 37 36 37 39 38 37 35 35 36 38 40
16 18 19 20 20 23 24 26 26 28 27 28 28 27 29 33 32 28 30 33 33 30 25 16 33 37 35 35 41 38 34 31 30 32 35 38 39 40
17 18 20 21 22 23 26 27 27 28 28 27 27 32 33 33 29 27 26 23 16 28 27 26 26 31 38 41 32 25 28 33 36 34 34 36 38 38
18 20 21 21 22 25 28 27 28 28 28 30 30 29 26 26 25 24 25 21 22 18 24 19 26 22 7 23 24 35 30 32 32 34 34 37 36 35
20 20 20 23 26 29 29 28 27 28 28 27 26 24 25 25 25 25 26 25 25 27 36 29 25 28 18 22 28 33 35 33 31 36 35 34 34 34
21 22 23 26 30 28 27 23 24 26 22 21 23 24 25 26 27 29 32 32 32 35 40 35 28 28 26 19 16 31 36 38 32 34 34 34 34 35
22 24 28 29 26 23 21 23 20 18 19 21 22 24 25 28 32 31 31 29 31 34 35 34 32 33 29 26 23 33 32 38 36 29 32 32 34 34
23 25 26 24 20 20 19 19 18 19 20 22 24 27 28 28 28 26 27 28 28 30 30 28 27 29 29 29 29 31 34 18 34 29 30 35 32 32
28 23 21 17 18 18 18 19 20 21 22 23 23 26 26 26 27 26 26 26 23 25 29 31 28 28 31 31 27 31 30 30 30 30 29 31 30 29
20 17 16 17 17 18 20 22 23 23 23 24 26 25 25 25 26 27 25 23 23 24 25 28 29 29 26 23 24 24 29 28 31 31 29 23 24 31
14 15 16 17 18 19 20 22 25 26 26 24 24 26 26 25 26 26 25 23 22 24 26 27 25 20 12 14 31 22 23 32 30 28 26 22 22 30
14 15 17 18 19 21 22 24 26 27 26 25 26 26 26 24 25 25 24 22 23 24 24 26 23 21 12 14 16 39 31 27 26 25 28 26 24 23
16 17 18 20 21 23 24 25 26 27 27 27 27 26 26 24 25 25 25 28 27 22 17 22 27 30 31 27 15 20 30 29 29 29 28 21 10 10
18 19 20 21 23 25 26 26 27 27 27 26 27 27 27 25 26 26 25 24 24 24 24 26 29 28 23 18 11 17 26 30 31 29 24 18 12 5
20 21 22 24 25 26 26 26 27 28 28 27 28 28 28 27 28 26 25 25 25 20 22 24 26 24 22 18 21 17 23 23 25 24 21 26 20 17
Wind_Direction
287 280 278 285 286 286 287 288 292 297 296 302 300 308 307 306 302 304 301 298 297 297 297 297 296 296 295 294 293 292 289 286 284 282 279 277 274 272
279 280 286 290 291 290 289 287 284 286 288 294 297 303 305 305 304 299 299 298 296 296 297 295 297 295 294 292 290 289 287 286 285 282 279 277 275 271
281 285 290 291 290 291 293 291 288 287 287 293 296 302 304 302 299 300 297 297 293 296 299 297 297 295 293 292 291 289 287 286 285 283 282 280 277 275
289 290 290 293 294 295 294 292 293 292 291 295 300 301 297 299 298 298 296 296 297 297 298 299 297 296 294 293 292 289 286 285 284 283 284 281 278 275
291 290 292 295 296 297 296 297 296 295 296 297 302 303 302 300 299 299 300 296 297 300 299 298 298 296 296 295 292 289 288 286 284 283 280 278 277 275
291 290 291 291 293 299 304 302 302 303 302 303 300 299 299 305 303 300 303 306 301 301 299 296 300 295 295 294 294 291 289 287 284 282 280 278 277 275
295 295 294 296 296 295 295 296 300 301 300 294 292 298 302 308 305 312 304 307 301 298 305 297 299 296 293 294 293 292 291 288 285 283 281 278 275 273
299 301 301 300 299 299 297 298 297 300 296 295 297 298 299 302 311 309 307 302 302 309 303 298 300 294 294 294 294 294 293 290 287 283 281 279 277 274
299 301 302 301 304 302 302 301 304 300 297 296 294 297 302 305 306 298 296 299 297 299 301 292 299 295 297 295 296 296 294 290 288 285 284 282 278 275
299 299 300 302 303 304 305 305 302 298 296 298 297 299 299 297 291 293 298 298 296 294 295 289 297 293 298 297 297 295 293 292 290 289 287 285 282 277
302 303 305 304 305 306 309 308 305 305 305 302 301 299 297 299 301 302 297 297 294 297 301 292 293 300 301 295 293 295 297 297 296 294 292 291 289 284
314 309 307 306 308 311 310 312 308 309 310 307 304 303 302 303 300 298 294 292 295 297 299 304 302 310 303 294 300 299 300 300 299 296 297 296 293 287
308 309 311 310 311 310 311 310 304 306 307 307 304 305 306 304 301 299 296 291 292 287 290 300 297 297 283 297 299 300 298 298 299 299 298 296 292 289
309 310 309 307 312 312 311 307 308 309 307 303 306 304 305 303 303 302 299 295 289 280 291 291 281 284 286 288 293 300 301 301 302 298 295 292 291 294
310 308 310 312 312 311 311 311 313 310 309 305 299 298 300 301 301 301 299 296 296 292 289 287 277 280 278 279 285 291 299 302 300 292 299 299 303 297
313 312 313 311 311 313 316 315 315 312 307 305 302 300 302 302 299 300 299 299 296 298 301 297 293 285 281 278 282 285 292 289 297 297 301 303 302 300
317 317 312 316 318 319 318 315 315 312 308 303 301 301 300 300 300 303 299 299 296 302 306 308 306 298 285 278 283 284 291 296 301 304 307 305 305 309
317 310 316 317 315 317 315 313 311 310 307 305 302 301 300 302 302 305 304 299 297 300 302 307 310 308 306 298 285 288 296 297 304 304 308 303 307 319
314 315 310 313 313 313 310 308 306 307 306 302 302 301 301 300 304 302 302 300 300 302 302 305 310 305 309 309 312 306 303 302 303 307 312 306 303 311
317 315 312 312 311 309 306 304 304 306 306 305 304 302 300 298 299 299 301 302 300 300 305 311 309 308 301 306 307 304 312 306 310 310 312 312 301 301
318 316 312 310 306 303 302 302 302 302 304 304 301 299 299 299 297 297 298 304 306 305 301 304 309 312 306 302 300 307 313 320 316 310 310 311 313 312
317 314 310 305 302 300 302 303 304 303 303 302 301 300 300 299 297 297 299 300 300 297 299 307 314 315 312 315 305 309 317 324 326 325 324 323 324 319
313 309 306 303 302 302 303 303 302 301 301 300 300 300 301 300 300 298 299 298 297 308 315 316 320 321 322 317 318 313 321 328 326 330 336 346 348 349
Height
799 800 799 798 797 796 794 793 789 781 774 771 769 767 765 762 759 755 752 747 743 739 735 731 727 723 718 714 711 707 704 701 698 695 693 691 689 687
798 798 797 795 794 793 791 789 787 782 772 771 767 765 762 758 754 750 745 740 736 732 728 723 719 715 711 707 703 698 694 691 688 685 683 681 679 677
796 795 793 793 791 789 787 785 782 779 770 764 764 760 757 753 748 744 739 734 728 723 720 715 711 707 702 698 693 689 685 681 678 675 672 670 668 666
793 792 791 790 787 785 783 780 778 775 769 758 758 754 751 747 742 737 733 728 722 716 712 708 703 698 693 689 684 679 675 671 668 665 662 660 658 656
791 790 788 786 784 781 779 776 773 770 765 757 749 749 745 742 736 731 726 719 715 711 706 700 696 688 684 679 674 669 665 661 658 655 652 649 647 645
788 786 784 782 780 777 776 773 769 765 761 755 749 742 740 735 732 724 717 715 709 705 699 691 687 680 675 669 664 659 656 652 648 644 641 638 636 634
783 782 780 778 776 774 771 768 766 762 757 752 745 739 734 728 724 719 714 708 703 698 691 679 679 672 666 660 655 649 646 642 638 634 630 627 625 623
779 777 775 773 771 769 767 764 762 757 752 747 741 734 728 724 720 715 711 704 692 692 686 673 673 662 658 651 645 640 635 631 627 623 619 615 612 610
776 774 772 770 767 765 762 759 755 753 748 742 735 730 723 720 717 709 704 698 691 685 683 667 664 652 649 641 636 630 625 620 616 611 607 603 600 597
773 771 768 765 763 760 756 753 749 745 741 736 730 724 720 715 710 704 699 692 683 679 677 666 658 646 639 633 626 619 615 611 606 602 597 592 588 585
769 766 764 761 759 756 752 747 742 737 734 729 725 719 713 708 704 700 693 688 677 670 670 663 652 642 633 619 614 610 607 602 597 591 587 582 577 572
766 763 760 758 754 751 747 742 735 731 726 721 716 712 708 703 699 696 691 684 676 665 662 659 650 646 624 613 608 604 597 593 588 582 576 571 566 561
763 759 757 754 751 746 742 737 732 727 722 717 712 707 703 699 694 690 687 682 673 664 657 657 646 641 637 615 601 596 592 584 580 573 566 561 556 551
760 756 753 749 745 741 737 733 728 723 718 714 709 704 699 694 688 684 679 674 668 660 651 650 641 636 627 615 601 588 582 576 571 564 557 550 544 538
757 753 748 743 739 736 732 728 724 719 715 710 705 699 695 688 682 676 670 664 658 651 644 639 634 626 621 611 599 587 577 567 562 554 548 541 534 525
753 748 744 739 736 732 728 724 720 716 712 707 701 695 690 684 677 672 664 657 650 639 636 631 626 620 611 603 596 582 573 566 555 548 541 532 524 516
749 745 740 736 732 728 725 722 717 713 708 703 698 692 685 679 672 666 660 652 646 636 627 621 616 611 603 595 585 574 565 557 550 542 535 524 515 507
746 742 738 735 731 727 724 719 715 710 705 700 694 688 681 675 667 660 655 648 640 632 624 616 608 599 590 583 579 570 561 553 544 535 528 519 506 499
745 741 738 734 730 726 722 717 711 706 701 695 689 683 677 670 664 656 649 643 635 627 619 612 605 598 587 576 566 565 559 547 538 527 522 515 505 494
743 739 736 732 728 724 719 714 708 702 696 691 685 678 672 666 658 651 644 638 630 621 613 608 602 596 589 578 566 553 550 544 535 524 514 507 500 491
741 737 734 730 726 721 716 710 705 698 692 686 679 673 667 661 653 647 640 634 627 619 611 602 596 591 583 575 565 553 543 541 533 523 512 501 492 484
739 735 731 727 722 717 712 706 700 693 687 681 674 668 662 656 649 642 636 629 622 615 607 599 592 585 578 572 563 553 542 535 526 518 510 504 495 485
737 732 728 723 718 713 708 702 696 688 682 676 670 663 657 651 644 638 631 625 618 611 605 597 589 583 576 569 561 551 543 534 523 514 506 500 494 487